[[{"header":{"parameterUnit":"m.s-1","parameterCategory":1,"la1":30.2991,"la2":30.254,"lo1":-89.0895,"lo2":-89.0444,"dy":0.0017,"dx":0.0017,"nx":28,"ny":28,"refTime":"2023-08-30T09:00:00:Z","depth":0,"parameterNumber":2,"parameterNumberName":"U-component_of_WINDS"},"data":[0,0,0,0,0,0,0,0,0,0,0,0,0,0,0,0,0,0,0,0,0,0,0,0,0,0,0,0,0,0,0,0,0,0,0,0,0,0,0,0,0,0,0,0,0,0,0,0,0,0,0,0,0,0,0,0,0,0,-0.63,-0.63,0,-0.6275,-0.6275,-0.6274,-0.6204,-0.6202,-0.6201,-0.6199,-0.6178,-0.6178,-0.6179,0,0,0,0,0,0,0,0,0,0,0,0,0,-0.629,-0.629,-0.63,-0.63,-0.63,-0.6275,-0.6275,-0.6274,-0.6204,-0.6202,-0.62,-0.6199,-0.6177,-0.6178,-0.6179,0,0,0,0,0,0,0,0,0,0,0,0,0,-0.6283,-0.629,-0.63,-0.6262,-0.6258,-0.6275,-0.6275,-0.6274,-0.6204,-0.6202,-0.62,-0.6198,-0.6177,-0.6178,-0.618,-0.6234,0,0,-0.6184,-0.6184,0,0,0,0,0,0,0,0,-0.6283,-0.6283,-0.6268,-0.6264,-0.626,-0.624,-0.6263,-0.6261,-0.6205,-0.6225,-0.6199,-0.6197,-0.6201,-0.62,-0.62,-0.6233,-0.6232,-0.6184,-0.6184,-0.6185,-0.6185,0,0,0,0,0,0,0,-0.6284,-0.6284,-0.629,-0.6267,-0.6263,-0.6246,-0.6242,-0.6262,-0.6226,-0.6223,-0.6218,-0.6215,-0.6198,-0.6199,-0.6199,-0.6232,-0.6184,-0.6185,-0.6186,-0.6186,-0.6306,-0.6308,0,0,0,0,0,0,-0.6289,-0.6285,-0.6291,-0.629,-0.6266,-0.6248,-0.6244,-0.6249,-0.6226,-0.622,-0.6217,-0.6212,-0.6198,-0.6198,-0.6198,-0.626,-0.6185,-0.6186,-0.6187,-0.6303,-0.6306,-0.6309,0,0,0,0,0,0,-0.6289,-0.6291,-0.6292,-0.6286,-0.6285,-0.6251,-0.6257,-0.625,-0.6251,-0.6221,-0.6215,-0.6225,-0.6196,-0.6196,-0.6225,-0.6258,-0.6187,-0.6188,-0.6301,-0.6304,-0.6308,-0.6384,0,0,0,0,0,0,-0.6289,-0.6291,-0.6311,-0.6287,-0.6285,-0.6319,-0.6259,-0.6251,-0.6253,-0.6246,-0.6227,-0.6222,-0.6194,-0.6223,-0.6226,-0.6259,-0.6189,-0.6297,-0.6302,-0.6306,-0.6378,-0.639,-0.6399,0,0,0,0,0,-0.6289,-0.6335,-0.6313,-0.6314,-0.6309,-0.6321,-0.632,-0.6287,-0.6256,-0.6276,-0.6256,-0.6222,-0.6253,-0.6227,-0.6229,-0.6263,-0.6295,-0.6301,-0.6306,-0.6374,-0.6387,-0.6399,0,0,0,0,0,0,-0.6367,-0.6331,-0.6306,-0.6345,-0.6336,-0.6309,-0.6334,-0.6303,-0.6304,-0.6298,-0.6257,-0.6254,-0.6288,-0.6278,-0.6249,-0.6313,-0.6269,-0.6275,-0.6319,-0.6332,-0.6342,-0.6345,-0.619,0,0,0,0,0,-0.6388,-0.6399,-0.6368,-0.6405,-0.6402,-0.6369,-0.6373,-0.6347,-0.6337,-0.6334,-0.6317,-0.631,-0.6317,-0.6324,-0.6329,-0.6375,-0.637,-0.6399,-0.641,-0.6419,-0.6425,-0.6448,-0.646,-0.6327,-0.6327,-0.6326,0,0,-0.6433,-0.6414,-0.6425,-0.642,-0.6411,-0.6424,-0.6366,-0.6384,-0.6393,-0.6337,-0.6362,-0.6349,-0.6338,-0.6376,-0.6391,-0.6368,-0.646,-0.6426,-0.6433,-0.6435,-0.6455,-0.6468,-0.6479,-0.633,-0.633,-0.6329,0,0,-0.6521,-0.6508,-0.6538,-0.6528,-0.6514,-0.649,-0.6497,-0.6474,-0.6463,-0.6487,-0.6445,-0.6456,-0.647,-0.6464,-0.6463,-0.6545,-0.6514,-0.6548,-0.6604,-0.6627,-0.6637,-0.6646,-0.6676,-0.6687,-0.6554,-0.6554,-0.6554,0,-0.658,-0.6597,-0.6557,-0.6576,-0.6575,-0.6522,-0.6552,-0.6545,-0.6534,-0.6535,-0.6508,-0.6524,-0.6513,-0.6547,-0.6567,-0.6568,-0.6575,-0.6551,-0.6639,-0.6647,-0.6655,-0.6683,-0.6695,-0.6559,-0.6558,-0.6558,-0.6557,0,-0.6669,-0.6682,-0.6707,-0.6696,-0.6697,-0.6722,-0.6686,-0.6692,-0.6666,-0.6645,-0.667,-0.6654,-0.6655,-0.6661,-0.6636,-0.6692,-0.6678,-0.6646,-0.6601,-0.6673,-0.6699,-0.6709,-0.6565,-0.6563,-0.6562,-0.6561,0,0,-0.681,-0.6772,-0.6783,-0.6776,-0.6754,-0.6764,-0.6785,-0.6784,-0.679,-0.6783,-0.6801,-0.6812,-0.6781,-0.678,-0.6753,-0.6773,-0.6839,-0.6738,-0.6737,-0.6758,-0.6899,-0.6925,-0.6938,-0.6817,-0.6819,-0.682,-0.69,0,-0.6894,-0.6928,-0.6891,-0.6933,-0.6944,-0.6891,-0.691,-0.6898,-0.6879,-0.6886,-0.6865,-0.6874,-0.6833,-0.6831,-0.6848,-0.6828,-0.6867,-0.6821,-0.6834,-0.6835,-0.684,-0.6951,-0.6979,-0.7055,-0.691,-0.6912,-0.6913,0,-0.6998,-0.6993,-0.7036,-0.7009,-0.7012,-0.703,-0.7025,-0.7032,-0.7017,-0.7002,-0.6998,-0.6965,-0.6984,-0.6938,-0.6964,-0.6933,-0.6936,-0.6926,-0.6928,-0.693,-0.688,-0.6957,-0.7079,-0.7091,-0.6928,-0.6927,-0.6926,0,-0.7097,-0.7101,-0.7127,-0.7122,-0.7092,-0.7105,-0.7093,-0.7076,-0.7077,-0.7073,-0.7073,-0.7072,-0.7072,-0.7071,-0.7038,-0.7008,-0.7068,-0.702,-0.7057,-0.7058,-0.7074,-0.7074,-0.72,-0.7073,-0.7073,-0.7073,-0.7073,0,-0.7196,-0.7225,-0.7171,-0.7187,-0.7216,-0.7173,-0.7204,-0.7186,-0.7171,-0.7183,-0.7137,-0.715,-0.7105,-0.7112,-0.7086,-0.7112,-0.7112,-0.71,-0.7093,-0.7105,-0.7107,-0.7108,-0.7103,-0.7076,-0.7075,-0.7075,-0.7074,0,-0.7313,-0.7278,-0.7303,-0.727,-0.7263,-0.7286,-0.7259,-0.7272,-0.7248,-0.7264,-0.7265,-0.7229,-0.7235,-0.7201,-0.7201,-0.7184,-0.7222,-0.7206,-0.7227,-0.7223,-0.7262,-0.7259,-0.7394,-0.741,-0.7273,-0.7274,-0.7275,0,-0.738,-0.74,-0.7369,-0.7373,-0.7362,-0.7369,-0.7369,-0.7327,-0.7329,-0.7312,-0.7328,-0.7329,-0.7329,-0.7341,-0.7315,-0.7315,-0.7299,-0.7346,-0.7299,-0.7309,-0.73,-0.73,-0.7302,-0.7357,-0.7358,-0.736,-0.7361,0,-0.7502,-0.7483,-0.7484,-0.7479,-0.7479,-0.7473,-0.7465,-0.747,-0.7424,-0.7428,-0.7433,-0.7432,-0.7431,-0.7434,-0.7427,-0.7415,-0.7381,-0.7375,-0.7384,-0.7398,-0.7409,-0.7404,-0.7256,-0.7373,-0.7372,-0.7371,-0.737,-0.737,-0.7597,-0.7612,-0.7591,-0.7594,-0.7582,-0.7574,-0.7584,-0.756,-0.7563,-0.7558,-0.7532,-0.7542,-0.7524,-0.7512,-0.7503,-0.751,-0.7488,-0.75,-0.7504,-0.7508,-0.7515,-0.7406,-0.7509,-0.7508,-0.7508,-0.7507,-0.7507,0,-0.7718,-0.7701,-0.7703,-0.7691,-0.7692,-0.7656,-0.7644,-0.7648,-0.7656,-0.7642,-0.7642,-0.7646,-0.7648,-0.762,-0.7618,-0.7629,-0.7613,-0.763,-0.763,-0.7627,-0.7535,-0.7528,-0.7643,-0.7643,-0.7643,-0.7643,-0.7643,-0.7643,-0.7781,-0.7804,-0.7782,-0.7798,-0.7781,-0.7788,-0.7784,-0.7777,-0.7765,-0.7772,-0.7772,-0.7753,-0.7734,-0.7729,-0.7729,-0.772,-0.7723,-0.7745,-0.7732,-0.7647,-0.7634,-0.7622,-0.7615,-0.7746,-0.7746,-0.7824,-0.7824,-0.7825]},{"header":{"parameterUnit":"m.s-1","parameterCategory":1,"la1":30.2991,"la2":30.254,"lo1":-89.0895,"lo2":-89.0444,"dy":0.0017,"dx":0.0017,"nx":28,"ny":28,"refTime":"2023-08-30T09:00:00:Z","depth":0,"parameterNumber":3,"parameterNumberName":"V-component_of_WINDS"},"data":[0,0,0,0,0,0,0,0,0,0,0,0,0,0,0,0,0,0,0,0,0,0,0,0,0,0,0,0,0,0,0,0,0,0,0,0,0,0,0,0,0,0,0,0,0,0,0,0,0,0,0,0,0,0,0,0,0,0,-4.5544,-4.5544,0,-4.5538,-4.5538,-4.5538,-4.5401,-4.5397,-4.5394,-4.5391,-4.5384,-4.5387,-4.539,0,0,0,0,0,0,0,0,0,0,0,0,0,-4.5438,-4.5441,-4.5544,-4.5544,-4.5544,-4.5538,-4.5538,-4.5538,-4.5402,-4.5397,-4.5393,-4.5389,-4.5383,-4.5387,-4.539,0,0,0,0,0,0,0,0,0,0,0,0,0,-4.5463,-4.5442,-4.5544,-4.5476,-4.5469,-4.5538,-4.5538,-4.5538,-4.5402,-4.5397,-4.5392,-4.5387,-4.5382,-4.5386,-4.5391,-4.5525,0,0,-4.5405,-4.5407,0,0,0,0,0,0,0,0,-4.5462,-4.5467,-4.5486,-4.548,-4.5474,-4.5465,-4.5498,-4.5533,-4.5404,-4.5428,-4.539,-4.5384,-4.5415,-4.5417,-4.5427,-4.5525,-4.5524,-4.5405,-4.5408,-4.541,-4.5412,0,0,0,0,0,0,0,-4.5461,-4.5467,-4.5542,-4.5486,-4.5479,-4.5445,-4.5442,-4.5504,-4.5451,-4.5425,-4.5415,-4.5416,-4.5411,-4.5423,-4.5426,-4.5524,-4.5405,-4.5409,-4.5412,-4.5414,-4.573,-4.5736,0,0,0,0,0,0,-4.5468,-4.5466,-4.5542,-4.5541,-4.5455,-4.5451,-4.5448,-4.5473,-4.545,-4.5441,-4.5421,-4.541,-4.5418,-4.5421,-4.5425,-4.558,-4.541,-4.5415,-4.5417,-4.5725,-4.5732,-4.5738,0,0,0,0,0,0,-4.5467,-4.5476,-4.5542,-4.5501,-4.5507,-4.5458,-4.5487,-4.5476,-4.5487,-4.5447,-4.5437,-4.5443,-4.5413,-4.5419,-4.5501,-4.5578,-4.5417,-4.5421,-4.5718,-4.5727,-4.5735,-4.5892,0,0,0,0,0,0,-4.5464,-4.5477,-4.5527,-4.5503,-4.551,-4.5619,-4.5492,-4.5479,-4.5496,-4.5482,-4.5465,-4.5457,-4.541,-4.5495,-4.5506,-4.5581,-4.5424,-4.5711,-4.5722,-4.5732,-4.588,-4.5905,-4.5926,0,0,0,0,0,-4.5461,-4.5572,-4.5531,-4.5541,-4.5572,-4.5624,-4.5627,-4.5571,-4.5503,-4.5553,-4.5527,-4.5458,-4.5568,-4.5504,-4.5515,-4.5594,-4.5706,-4.5719,-4.5731,-4.5869,-4.59,-4.5926,0,0,0,0,0,0,-4.5606,-4.5568,-4.5521,-4.5628,-4.563,-4.56,-4.5662,-4.5605,-4.5626,-4.5612,-4.5541,-4.5538,-4.5632,-4.562,-4.5551,-4.5722,-4.5625,-4.564,-4.5726,-4.5755,-4.5777,-4.5778,-4.5428,0,0,0,0,0,-4.5651,-4.5696,-4.566,-4.5757,-4.5761,-4.5712,-4.5732,-4.5688,-4.5687,-4.5688,-4.5667,-4.5669,-4.5704,-4.5728,-4.5758,-4.5877,-4.5871,-4.5937,-4.596,-4.5979,-4.5993,-4.6055,-4.6084,-4.5779,-4.5779,-4.5779,0,0,-4.5743,-4.5728,-4.5761,-4.5786,-4.5783,-4.5831,-4.5713,-4.5769,-4.5804,-4.5696,-4.5772,-4.5758,-4.5755,-4.5856,-4.59,-4.585,-4.6076,-4.5995,-4.6011,-4.6015,-4.6071,-4.61,-4.6126,-4.5788,-4.5786,-4.5785,0,0,-4.5936,-4.593,-4.601,-4.6009,-4.6004,-4.5971,-4.5991,-4.5969,-4.5955,-4.6031,-4.5951,-4.5991,-4.6053,-4.6054,-4.6063,-4.6256,-4.6193,-4.6268,-4.6389,-4.645,-4.6474,-4.6495,-4.6564,-4.659,-4.6282,-4.6282,-4.6283,0,-4.6052,-4.6121,-4.6058,-4.612,-4.6133,-4.6037,-4.6118,-4.6119,-4.6126,-4.6137,-4.6081,-4.6156,-4.6148,-4.6248,-4.6295,-4.6305,-4.6325,-4.6269,-4.6476,-4.6496,-4.6515,-4.658,-4.6606,-4.6291,-4.629,-4.6289,-4.6289,0,-4.6263,-4.6313,-4.6378,-4.6387,-4.6407,-4.6478,-4.6425,-4.6454,-4.6408,-4.6381,-4.6459,-4.6445,-4.647,-4.649,-4.6447,-4.6585,-4.6554,-4.6488,-4.6389,-4.6554,-4.6614,-4.6638,-4.6304,-4.6301,-4.6298,-4.6296,0,0,-4.6549,-4.6521,-4.6546,-4.6548,-4.6536,-4.6573,-4.664,-4.6664,-4.669,-4.6697,-4.6751,-4.6805,-4.6744,-4.6754,-4.6709,-4.6763,-4.6917,-4.669,-4.6689,-4.6733,-4.7068,-4.7118,-4.7148,-4.6875,-4.6879,-4.6883,-4.7068,0,-4.6735,-4.6847,-4.6792,-4.691,-4.6955,-4.6864,-4.6921,-4.692,-4.6896,-4.693,-4.6903,-4.6943,-4.686,-4.6865,-4.6914,-4.6888,-4.6983,-4.6874,-4.6924,-4.6927,-4.6928,-4.7179,-4.7232,-4.7407,-4.7091,-4.7095,-4.7098,0,-4.6968,-4.6985,-4.7108,-4.7087,-4.7104,-4.7157,-4.7175,-4.7208,-4.7205,-4.7184,-4.7196,-4.7138,-4.7201,-4.7103,-4.7189,-4.7116,-4.7133,-4.7123,-4.7129,-4.7131,-4.7023,-4.7189,-4.7462,-4.7489,-4.7134,-4.7131,-4.7129,0,-4.7164,-4.7217,-4.7297,-4.7302,-4.728,-4.732,-4.7312,-4.7304,-4.7322,-4.7338,-4.7349,-4.7372,-4.7385,-4.7404,-4.7354,-4.7287,-4.7447,-4.7344,-4.7431,-4.7433,-4.7469,-4.7468,-4.775,-4.7481,-4.748,-4.748,-4.7479,0,-4.7378,-4.7457,-4.7385,-4.7435,-4.752,-4.7456,-4.7542,-4.7525,-4.7518,-4.7562,-4.7485,-4.7528,-4.746,-4.7496,-4.7457,-4.7535,-4.7541,-4.7526,-4.7515,-4.7533,-4.7535,-4.7544,-4.753,-4.7486,-4.7485,-4.7484,-4.7482,0,-4.7611,-4.7567,-4.7648,-4.762,-4.7615,-4.768,-4.7656,-4.77,-4.7671,-4.7728,-4.7738,-4.7691,-4.773,-4.7682,-4.7717,-4.7691,-4.7796,-4.7767,-4.7798,-4.7789,-4.7879,-4.7871,-4.8176,-4.8213,-4.7921,-4.7923,-4.7926,0,-4.7751,-4.781,-4.7788,-4.7812,-4.781,-4.7849,-4.7867,-4.7806,-4.7828,-4.7829,-4.7873,-4.7906,-4.7928,-4.7995,-4.7964,-4.7991,-4.7961,-4.8066,-4.7965,-4.7981,-4.7963,-4.796,-4.7966,-4.8087,-4.8091,-4.8094,-4.8096,0,-4.8004,-4.7979,-4.8008,-4.8029,-4.8053,-4.8067,-4.8075,-4.8099,-4.8035,-4.8064,-4.8102,-4.812,-4.8155,-4.8188,-4.8206,-4.8198,-4.8137,-4.8128,-4.815,-4.8169,-4.8185,-4.8178,-4.7855,-4.8122,-4.8119,-4.8117,-4.8116,-4.8115,-4.8195,-4.8242,-4.8235,-4.8269,-4.8269,-4.8278,-4.8318,-4.8294,-4.8325,-4.8349,-4.831,-4.836,-4.8354,-4.8372,-4.8371,-4.8408,-4.8363,-4.8394,-4.8402,-4.8411,-4.8425,-4.8179,-4.8411,-4.841,-4.841,-4.8409,-4.8408,0,-4.8444,-4.8434,-4.8466,-4.848,-4.8508,-4.8447,-4.8452,-4.848,-4.8523,-4.8524,-4.8547,-4.8592,-4.8624,-4.8596,-4.8622,-4.8657,-4.863,-4.8666,-4.8663,-4.8662,-4.8463,-4.8442,-4.8688,-4.8688,-4.8688,-4.8688,-4.8688,-4.8688,-4.8576,-4.8653,-4.8627,-4.8703,-4.8693,-4.874,-4.8748,-4.8757,-4.8756,-4.881,-4.8836,-4.8817,-4.8806,-4.883,-4.8857,-4.8848,-4.8861,-4.8908,-4.8889,-4.8704,-4.8676,-4.865,-4.863,-4.8911,-4.8912,-4.9085,-4.9087,-4.9088]}]]